Location: Hackbridge
(51.3833°N, 0.1500°W)
Time: 21:36:32
(UTC+00:00)

COSMOS 2406 - Pass Details

Date: 13 October 2019
Orbit: 842 x 865 km, 71.0° (Epoch: 18 November)

Event Time Altitude Azimuth Distance (km) Brightness Sun altitude
Rises 19:43:36 0° 326° (NW) 3,459 7.2 -24.1°
Reaches altitude 10° 19:46:10 10° 320° (NW) 2,517 6.4 -24.5°
Maximum altitude 19:51:35 42° 251° (WSW) 1,208 4.3 -25.3°
Enters shadow 19:55:27 18° 189° (S) 1,984 5.0 -25.9°
